FREGAT DEB, 45816

Orbit data source: Space-Track

FREGAT DEB, 45816 is space debris in LEO originally from a launch on Mon, 18 Jul 2011 UTC launched from the Tyuratam Missile And Space Complex (TTMTR). Debris objects in space refer to the collection of defunct objects orbiting the Earth. Examples of debris include non-operational satellites, rocket bodies, and fragments generated from explosions, collisions, or faulty payload assembly.

Loading next visibility...
Identifier
45816, 2011-037BA
Orbit
LEO
Country
Flag of CISCIS
Related business
Manufacturer
Lavochkin
Mission
Spacecraft
Bus & Motor
Unknown
Mass
Unknown
Launch date (UTC)
2011-07-18 (15 years ago)
Launch vehicle
Unknown
Launch site
Tyuratam Missile And Space Complex (TTMTR)
Object type
Payload
Rocket body
Debris
Shape & HBR
Unknown shape, 0.1 m
Radar Cross Section
Small (<0.1 m²)

Expand to show TLE details & history
Last TLE update: 17 hours ago

TLE from 17 hours ago
0 FREGAT DEB
1 45816U 11037BA  26034.20496171  .00008821  00000-0  18857-2 0  9991
2 45816  51.4738  41.5924 1611100 135.2277 239.0535 11.85197226236354
Epoch: 2026-02-03T04:55Z
TLE epoch observation values (Epoch: 2026-02-03T04:55:08.691Z)
Latitude
-0.00006°
Longitude
-165.5831°
Altitude
2,558.145 km
Speed
6.339 km/s
True Right ascension
02h 46m 22s
True Declination
0° 00' 00"
Sunlit
Object was in daylight at epoch
Visualization orbit readout
Latitude
Unknown
Longitude
Unknown
Altitude
Unknown
Speed
Unknown
Apparent Right ascension
Unknown
Apparent Declination
Unknown
Sunlit
N/A
Visualization observer readout
Local Sidereal Time
23:46:03
Azimuth
Unknown
Elevation
Unknown
Doppler factor
Unknown
Orbital elements
Apogee altitude
3,057.54 km
Perigee altitude
439.043 km
Semi-major axis
8,126.428 km
Eccentricity
0.16111
Inclination
51.4738°
RAAN
41.5924°
Arg. of periapsis
135.2277°
True anomaly
224.85474°
Mean anomaly
239.0535°
Eccentric anomaly
231.79938°
Mean motion
2.96274 °/min
Orbital period
121.51 mins
BSTAR
0.0018857
Loading maneuver chart data...
Computing Atmospheric mass density...
Loading historical data...
Loading historical data...
Loading historical data...
Loading historical data...
Loading historical data...
Loading historical data...
Loading historical data...

Documentation

Showing up to 5 results
|